Location: ?
(35.4996°N, 139.3166°E)
Time: 11:21:41
(UTC+00:00)

Cosmos 1331 Rocket - Pass Details

Date: 18 April 2024
Orbit: 747 x 776 km, 74.0° (Epoch: 19 May)

Event Time Altitude Azimuth Distance (km) Brightness Sun altitude
Rises 18:49:33 0° 345° (NNW) 3,261 7.4 -15.3°
Reaches altitude 10° 18:51:58 10° 349° (N) 2,330 6.7 -14.8°
Maximum altitude 18:57:14 65° 71° (ENE) 850 4.5 -13.9°
Drops below altitude 10° 19:02:26 10° 153° (SSE) 2,306 6.5 -12.9°
Sets 19:04:49 0° 156° (SSE) 3,225 7.2 -12.4°
